KM4CBK Weather Reports


time (UTC)temp
C
wind
direction
speed
KPH
gust
KPH
rain 1hr
cm
rain 24hr
cm
rain mn
cm
humidity
%
barometer
mb
20260906141107 28 151 0.0 4.8 0.00 0.00 0.00 85 1011.2
20260906140605 28 90 1.6 3.2 0.00 0.00 0.00 86 1011.4
20260906140101 28 75 0.0 3.2 0.00 0.00 0.00 88 1011.2
20260906135557 27 165 1.6 3.2 0.00 0.00 0.00 89 1011.4
20260906135053 27 79 3.2 3.2 0.00 0.00 0.00 91 1011.3
20260906134549 26 180 0.0 0.0 0.00 0.00 0.00 94 1011.4
20260906134044 26 154 3.2 3.2 0.00 0.00 0.00 94 1011.2
20260906133539 26 180 0.0 4.8 0.00 0.00 0.00 95 1011.4
20260906133034 25 147 0.0 3.2 0.00 0.00 0.00 96 1011.5
20260906132530 25 180 0.0 0.0 0.00 0.00 0.00 97 1011.7
20260906132025 25 169 0.0 0.0 0.00 0.00 0.00 98 1011.7
20260906131520 25 169 0.0 3.2 0.00 0.00 0.00 98 1011.8
20260906131016 25 173 0.0 0.0 0.00 0.00 0.00 99 1011.6
20260906130515 25 165 0.0 0.0 0.00 0.00 0.00 99 1011.6
20260906130010 25 165 0.0 1.6 0.00 0.00 0.00 99 1011.8
20260906125508 24 106 0.0 0.0 0.00 0.00 0.00 99 1011.6
20260906125007 24 106 0.0 1.6 0.00 0.00 0.00 99 1011.7
20260906124503 24 99 0.0 0.0 0.00 0.00 0.00 99 1011.7
20260906123958 23 90 0.0 0.0 0.00 0.00 0.00 99 1011.6
20260906123457 23 157 0.0 1.6 0.00 0.00 0.00 99 1011.8
20260906122957 23 180 0.0 0.0 0.00 0.00 0.00 99 1011.8
20260906122452 23 90 0.0 1.6 0.00 0.00 0.00 99 1011.9
20260906121948 23 157 0.0 0.0 0.00 0.00 0.00 99 1011.9
20260906121444 23 157 0.0 0.0 0.00 0.00 0.00 99 1011.6
20260906120940 23 157 0.0 0.0 0.00 0.00 0.00 99 1011.7
20260906120435 23 157 0.0 1.6 0.00 0.00 0.00 99 1011.8
20260906115932 23 180 0.0 0.0 0.00 0.00 0.00 99 1011.8
20260906115427 23 172 0.0 0.0 0.00 0.00 0.00 99 1011.6
20260906114927 23 106 0.0 1.6 0.00 0.00 0.00 99 1011.6
20260906114426 23 180 0.0 0.0 0.00 0.00 0.00 99 1011.3
20260906113923 23 172 0.0 0.0 0.00 0.00 0.00 99 1011.6
20260906113421 23 172 0.0 0.0 0.00 0.00 0.00 99 1011.6
20260906112918 23 172 0.0 0.0 0.00 0.00 0.00 99 1011.6
20260906112413 23 165 0.0 0.0 0.00 0.00 0.00 99 1011.4
20260906111908 23 165 0.0 0.0 0.00 0.00 0.00 99 1011.6
20260906111408 22 165 0.0 0.0 0.00 0.00 0.00 99 1011.7
20260906110903 22 165 0.0 0.0 0.00 0.00 0.00 99 1011.4
20260906110358 22 165 0.0 0.0 0.00 0.00 0.00 99 1011.4
20260906105857 22 165 0.0 1.6 0.00 0.00 0.00 99 1011.1
20260906105353 22 172 0.0 0.0 0.00 0.00 0.00 99 1011.2
20260906104848 22 172 0.0 0.0 0.00 0.00 0.00 99 1011.4
20260906104347 22 172 0.0 0.0 0.00 0.00 0.00 99 1011.2
20260906103846 22 172 0.0 0.0 0.00 0.00 0.00 99 1011.2
20260906103343 22 157 0.0 1.6 0.00 0.00 0.00 99 1011.1
20260906102840 23 180 0.0 0.0 0.00 0.00 0.00 99 1011.0
20260906102339 22 180 0.0 0.0 0.00 0.00 0.00 99 1011.1
20260906101834 23 180 0.0 0.0 0.00 0.00 0.00 99 1011.0
20260906101329 23 180 0.0 0.0 0.00 0.00 0.00 99 1010.9
20260906100825 22 180 0.0 3.2 0.00 0.00 0.00 99 1010.8
20260906100324 23 0 0.0 0.0 0.00 0.00 0.00 99 1011.0
20260906095819 23 0 0.0 0.0 0.00 0.00 0.00 99 1010.8
20260906095315 23 128 0.0 0.0 0.00 0.00 0.00 99 1011.0
20260906094813 23 128 0.0 0.0 0.00 0.00 0.00 99 1011.0
20260906094309 23 128 0.0 0.0 0.00 0.00 0.00 99 1010.8
20260906093806 23 128 0.0 0.0 0.00 0.00 0.00 99 1011.0
20260906093301 22 270 0.0 0.0 0.00 0.00 0.00 99 1010.7
20260906092755 22 0 0.0 0.0 0.00 0.00 0.00 99 1010.8
20260906092250 22 180 0.0 0.0 0.00 0.00 0.00 99 1010.7
20260906091746 22 180 0.0 0.0 0.00 0.00 0.00 99 1010.6
20260906091242 22 180 0.0 0.0 0.00 0.00 0.00 99 1010.7
20260906090738 22 180 0.0 0.0 0.00 0.00 0.00 99 1010.7
20260906090237 22 180 0.0 0.0 0.00 0.00 0.00 99 1010.5
20260906085736 22 180 0.0 0.0 0.00 0.00 0.00 99 1010.5
20260906085236 22 180 1.6 1.6 0.00 0.00 0.00 99 1010.4
20260906084730 22 180 0.0 0.0 0.00 0.00 0.00 99 1010.5
20260906084224 22 172 0.0 1.6 0.00 0.00 0.00 99 1010.6
20260906083720 22 172 0.0 0.0 0.00 0.00 0.00 99 1010.7
20260906083215 22 180 0.0 0.0 0.00 0.00 0.00 99 1010.8
20260906082710 22 188 0.0 0.0 0.00 0.00 0.00 99 1010.7
20260906082205 22 0 0.0 0.0 0.00 0.00 0.00 99 1010.8
20260906081702 22 254 0.0 1.6 0.00 0.00 0.00 99 1010.9
20260906081156 22 320 0.0 4.8 0.00 0.00 0.00 99 1010.7
20260906080653 22 35 0.0 3.2 0.00 0.00 0.00 99 1011.0
20260906080149 22 180 0.0 0.0 0.00 0.00 0.00 99 1010.8
20260906075648 22 180 0.0 0.0 0.00 0.00 0.00 99 1010.7
20260906075143 22 180 0.0 0.0 0.00 0.00 0.00 99 1010.8
20260906074638 22 180 0.0 0.0 0.00 0.00 0.00 99 1010.8
20260906074137 22 180 0.0 0.0 0.00 0.00 0.00 99 1010.4
20260906073632 22 180 0.0 0.0 0.00 0.00 0.00 99 1010.5
20260906073128 22 188 0.0 0.0 0.00 0.00 0.00 99 1010.6
20260906072622 22 188 0.0 0.0 0.00 0.00 0.00 99 1010.4
20260906072118 22 188 0.0 0.0 0.00 0.00 0.00 99 1010.6
20260906071615 22 188 0.0 0.0 0.00 0.00 0.00 99 1010.2
20260906071109 22 188 0.0 0.0 0.00 0.00 0.00 99 1010.3
20260906070606 22 188 0.0 0.0 0.00 0.00 0.00 99 1010.5
20260906070101 22 173 0.0 1.6 0.00 0.00 0.00 99 1010.5
20260906065600 22 173 0.0 0.0 0.00 0.00 0.00 99 1010.7
20260906065056 22 173 0.0 0.0 0.00 0.00 0.00 99 1010.4
20260906064552 22 83 0.0 0.0 0.00 0.00 0.00 99 1010.5
20260906064046 22 83 0.0 0.0 0.00 0.00 0.00 99 1010.5
20260906063542 23 83 0.0 0.0 0.00 0.00 0.00 99 1010.5
20260906063038 23 83 0.0 0.0 0.00 0.00 0.00 99 1010.5
20260906062533 23 83 0.0 0.0 0.00 0.00 0.00 99 1010.8
20260906062027 23 83 0.0 0.0 0.00 0.00 0.00 99 1010.7
20260906061523 23 83 0.0 0.0 0.00 0.00 0.00 99 1010.6
20260906061022 23 83 0.0 0.0 0.00 0.00 0.00 99 1010.7
20260906060519 23 83 0.0 0.0 0.00 0.00 0.00 99 1010.8
20260906060016 23 83 0.0 0.0 0.00 0.00 0.00 99 1011.3
20260906055511 23 83 0.0 0.0 0.00 0.00 0.00 99 1010.9
20260906055007 23 83 0.0 0.0 0.00 0.00 0.00 99 1011.1
20260906054501 23 90 0.0 1.6 0.00 0.00 0.00 99 1011.2
20260906053956 23 188 0.0 0.0 0.00 0.00 0.00 99 1011.1
20260906053453 23 188 0.0 0.0 0.00 0.00 0.00 99 1011.1
20260906052948 23 188 0.0 0.0 0.00 0.00 0.00 99 1011.2
20260906052444 23 188 0.0 0.0 0.00 0.00 0.00 99 1011.4
20260906051941 23 188 0.0 0.0 0.00 0.00 0.00 99 1011.3
20260906051436 23 188 0.0 0.0 0.00 0.00 0.00 99 1011.5
20260906050932 23 188 0.0 0.0 0.00 0.00 0.00 99 1011.5
20260906050431 23 188 0.0 0.0 0.00 0.00 0.00 99 1011.4
20260906045930 23 188 0.0 0.0 0.00 0.00 0.00 99 1011.3
20260906045429 23 188 0.0 0.0 0.00 0.00 0.00 99 1011.5
20260906044926 23 188 0.0 0.0 0.00 0.00 0.00 99 1011.3
20260906044420 23 188 0.0 0.0 0.00 0.00 0.00 99 1011.3
20260906043916 23 188 0.0 0.0 0.00 0.00 0.00 99 1011.4
20260906043412 23 188 0.0 0.0 0.00 0.00 0.00 99 1011.2
20260906042907 23 240 0.0 0.0 0.00 0.00 0.00 99 1011.3
20260906042406 23 240 0.0 0.0 0.00 0.00 0.00 99 1011.6
20260906041901 23 240 0.0 0.0 0.00 0.00 0.00 99 1011.3
20260906041357 23 240 0.0 1.6 0.00 0.00 0.00 99 1011.4
20260906040851 24 0 0.0 0.0 0.00 0.00 0.00 99 1011.6
20260906040346 23 0 0.0 0.0 0.00 0.00 0.00 99 1011.8
20260906035842 23 0 0.0 0.0 0.00 0.00 0.00 99 1011.7
20260906035337 23 0 0.0 0.0 0.00 0.00 0.00 99 1011.9
20260906034832 23 0 0.0 3.2 0.00 0.00 0.00 99 1011.8
20260906034327 23 352 0.0 0.0 0.00 0.00 0.00 99 1011.8
20260906033823 23 352 0.0 0.0 0.00 0.00 0.00 99 1011.4
20260906033322 24 352 0.0 0.0 0.00 0.00 0.00 99 1011.6
20260906032818 23 352 0.0 0.0 0.00 0.00 0.00 99 1011.5
20260906032314 24 180 0.0 0.0 0.00 0.00 0.00 99 1011.2
20260906031809 24 180 0.0 0.0 0.00 0.00 0.00 99 1011.4
20260906031305 24 180 0.0 0.0 0.00 0.00 0.00 99 1011.4
20260906030804 24 234 0.0 0.0 0.00 0.00 0.00 99 1011.6
20260906030300 24 234 0.0 0.0 0.00 0.00 0.00 99 1011.5
20260906025759 24 234 0.0 0.0 0.00 0.00 0.00 99 1011.4
20260906025253 24 234 0.0 0.0 0.00 0.00 0.00 99 1011.5
20260906024752 24 234 0.0 0.0 0.00 0.00 0.00 99 1011.4
20260906024251 24 234 0.0 0.0 0.00 0.00 0.00 99 1011.4
20260906023747 24 234 0.0 0.0 0.00 0.00 0.00 99 1011.5
20260906023243 24 234 0.0 0.0 0.00 0.00 0.00 99 1011.6
20260906022738 25 234 0.0 0.0 0.00 0.00 0.00 99 1011.3
20260906022233 25 234 0.0 0.0 0.00 0.00 0.00 99 1011.1
20260906021729 25 234 0.0 0.0 0.00 0.00 0.00 99 1011.3
20260906021228 25 234 0.0 0.0 0.00 0.00 0.00 98 1010.9
20260906020723 25 234 0.0 0.0 0.00 0.00 0.00 98 1011.3
20260906020218 25 234 0.0 0.0 0.00 0.00 0.00 98 1011.4
20260906015712 25 234 0.0 0.0 0.00 0.00 0.00 98 1011.0
20260906015210 25 234 0.0 0.0 0.00 0.00 0.00 98 1011.2
20260906014705 25 234 0.0 0.0 0.00 0.00 0.00 98 1011.1
20260906014201 25 234 0.0 0.0 0.00 0.00 0.00 98 1010.8
20260906013657 25 234 0.0 0.0 0.00 0.00 0.00 97 1010.9
20260906013152 25 234 0.0 0.0 0.00 0.00 0.00 97 1010.8
20260906012651 25 234 0.0 0.0 0.00 0.00 0.00 96 1010.7
20260906012146 25 234 0.0 0.0 0.00 0.00 0.00 96 1010.4
20260906011642 25 234 0.0 0.0 0.00 0.00 0.00 96 1010.3
20260906011136 25 234 0.0 0.0 0.00 0.00 0.00 96 1010.4
20260906010631 26 234 0.0 0.0 0.00 0.00 0.00 96 1010.3
20260906010128 26 234 0.0 0.0 0.00 0.00 0.00 96 1010.1
20260906005622 26 234 0.0 0.0 0.00 0.00 0.00 95 1009.9
20260906005121 26 234 0.0 0.0 0.00 0.00 0.00 95 1009.9
20260906004620 26 234 0.0 0.0 0.00 0.00 0.00 94 1010.1
20260906004115 26 234 0.0 0.0 0.00 0.00 0.00 94 1009.6
20260906003611 26 234 0.0 0.0 0.00 0.00 0.00 93 1009.8
20260906003106 26 234 0.0 0.0 0.00 0.00 0.00 93 1009.8
20260906002601 26 234 0.0 0.0 0.00 0.00 0.00 92 1009.8
20260906002056 27 234 0.0 0.0 0.00 0.00 0.00 91 1009.7
20260906001551 27 234 0.0 1.6 0.00 0.00 0.00 90 1009.7
20260906001045 27 151 0.0 0.0 0.00 0.00 0.00 90 1009.9
20260906000541 27 151 0.0 0.0 0.00 0.00 0.00 89 1009.9
20260906000036 27 151 0.0 0.0 0.00 0.00 0.00 88 1010.1
20260905235536 27 151 0.0 0.0 0.00 0.00 0.00 87 1010.2
20260905235031 28 151 0.0 0.0 0.00 0.00 0.00 87 1010.0
20260905234527 28 151 0.0 0.0 0.00 0.00 0.00 85 1010.3
20260905234027 28 151 0.0 0.0 0.00 0.00 0.00 85 1010.2
20260905233521 28 151 0.0 0.0 0.00 0.00 0.00 85 1010.2
20260905233021 28 151 0.0 0.0 0.00 0.00 0.00 84 1010.3
20260905232517 28 175 0.0 3.2 0.00 0.00 0.00 83 1010.2
20260905232012 29 154 0.0 0.0 0.00 0.00 0.00 82 1010.3
20260905231508 28 168 0.0 1.6 0.00 0.00 0.00 82 1010.2
20260905231004 28 166 0.0 4.8 0.00 0.00 0.00 82 1010.3
20260905230503 28 173 0.0 0.0 0.00 0.00 0.00 82 1010.2
20260905230001 29 173 0.0 1.6 0.00 0.00 0.00 81 1010.4
20260905225456 28 175 0.0 3.2 0.00 0.00 0.00 81 1010.4
20260905224951 28 160 0.0 0.0 0.00 0.00 0.00 81 1010.4
20260905224446 29 151 0.0 3.2 0.00 0.00 0.00 81 1010.5
20260905223945 29 165 0.0 4.8 0.00 0.00 0.00 80 1010.6
20260905223443 29 165 0.0 1.6 0.00 0.00 0.00 79 1010.5
20260905222944 30 188 0.0 0.0 0.00 0.00 0.00 79 1010.4
20260905222438 30 90 0.0 6.4 0.00 0.00 0.00 78 1010.3
20260905221934 30 151 0.0 1.6 0.00 0.00 0.00 78 1010.4
20260905221430 30 145 1.6 3.2 0.00 0.00 0.00 76 1010.6
20260905220926 30 180 0.0 3.2 0.00 0.00 0.00 76 1010.3
20260905220422 30 15 0.0 1.6 0.00 0.00 0.00 75 1010.4
20260905215921 30 190 3.2 3.2 0.00 0.00 0.00 74 1010.4
20260905215416 30 159 3.2 4.8 0.00 0.00 0.00 75 1010.3
20260905214913 30 120 1.6 8.0 0.00 0.00 0.00 74 1010.2
20260905214409 31 154 0.0 3.2 0.00 0.00 0.00 74 1010.4
20260905213908 31 175 3.2 3.2 0.00 0.00 0.00 75 1010.4
20260905213405 31 172 0.0 1.6 0.00 0.00 0.00 75 1010.4
20260905212900 31 151 4.8 4.8 0.00 0.00 0.00 75 1010.3
20260905212354 31 169 0.0 3.2 0.00 0.00 0.00 75 1010.3
20260905211847 30 29 0.0 4.8 0.00 0.00 0.00 77 1010.6
20260905211344 30 171 0.0 4.8 0.00 0.00 0.00 77 1010.7
20260905210840 30 157 0.0 1.6 0.00 0.00 0.00 75 1010.6
20260905210340 30 165 0.0 3.2 0.00 0.00 0.00 74 1010.7
20260905205838 30 180 0.0 4.8 0.00 0.00 0.00 75 1010.9
20260905205333 31 164 0.0 6.4 0.00 0.00 0.00 73 1010.9
20260905204833 31 186 0.0 3.2 0.00 0.00 0.00 73 1010.8
20260905204329 31 82 0.0 4.8 0.00 0.00 0.00 76 1010.9
20260905203827 31 180 0.0 9.7 0.00 0.00 0.00 76 1010.9
20260905203324 31 151 3.2 4.8 0.00 0.00 0.00 77 1010.9
20260905202819 31 170 4.8 6.4 0.00 0.00 0.00 75 1010.7
20260905202314 31 124 4.8 4.8 0.00 0.00 0.00 74 1011.0
20260905201809 32 203 0.0 4.8 0.00 0.00 0.00 72 1011.1
20260905201305 32 90 0.0 4.8 0.00 0.00 0.00 73 1011.2
20260905200759 31 123 0.0 9.7 0.00 0.00 0.00 74 1011.4
20260905200255 31 144 0.0 4.8 0.00 0.00 0.00 74 1011.4
20260905195753 31 185 0.0 3.2 0.00 0.00 0.00 75 1011.3
20260905195248 31 186 0.0 8.0 0.00 0.00 0.00 74 1011.5
20260905194744 32 90 3.2 4.8 0.00 0.00 0.00 71 1011.8
20260905194243 31 176 3.2 6.4 0.00 0.00 0.00 74 1011.7
20260905193743 32 144 3.2 6.4 0.00 0.00 0.00 70 1011.7
20260905193238 32 162 3.2 6.4 0.00 0.00 0.00 72 1011.7
20260905192733 32 192 0.0 3.2 0.00 0.00 0.00 71 1011.9
20260905192229 31 180 0.0 3.2 0.00 0.00 0.00 73 1012.1
20260905191729 30 83 0.0 8.0 0.00 0.00 0.00 75 1011.9
20260905191227 31 100 3.2 4.8 0.00 0.00 0.00 75 1011.9
20260905190726 30 200 0.0 4.8 0.00 0.00 0.00 75 1012.3
20260905190225 30 8 0.0 4.8 0.00 0.00 0.00 78 1012.1
20260905185724 30 127 6.4 8.0 0.00 0.00 0.00 77 1012.2
20260905185219 28 70 4.8 8.0 0.00 0.00 0.00 81 1012.4
20260905184713 29 184 3.2 8.0 0.00 0.00 0.00 81 1012.4
20260905184212 28 229 0.0 3.2 0.00 0.00 0.00 84 1012.6
20260905183706 27 270 0.0 1.6 0.00 0.00 0.00 87 1012.6
20260905183201 27 307 3.2 4.8 0.00 0.00 0.00 87 1012.6
20260905182701 27 199 4.8 4.8 0.00 0.00 0.00 87 1012.6
20260905182201 27 225 0.0 3.2 0.00 0.00 0.00 88 1013.0
20260905181656 27 185 3.2 4.8 0.00 0.00 0.00 88 1012.9
20260905181155 27 173 0.0 4.8 0.00 0.00 0.00 89 1013.3
20260905180650 27 171 0.0 4.8 0.00 0.00 0.00 89 1013.2
20260905180145 27 125 4.8 8.0 0.00 0.00 0.00 88 1013.3
20260905175644 27 157 1.6 6.4 0.00 0.00 0.00 87 1013.6
20260905175140 27 255 1.6 4.8 0.00 0.00 0.00 87 1013.5
20260905174635 27 200 0.0 3.2 0.00 0.00 0.00 89 1013.7
20260905174131 27 199 4.8 6.4 0.00 0.00 0.00 89 1013.9
20260905173626 27 185 0.0 4.8 0.00 0.00 0.00 89 1013.9
20260905173122 27 165 3.2 8.0 0.00 0.00 0.00 89 1014.1
20260905172621 27 220 0.0 6.4 0.00 0.00 0.00 90 1013.9
20260905172116 27 123 4.8 11.3 0.00 0.00 0.00 89 1014.0
20260905171612 27 166 1.6 4.8 0.00 0.00 0.00 90 1014.3
20260905171108 26 180 3.2 4.8 0.00 0.00 0.00 90 1014.1
20260905170604 26 213 3.2 4.8 0.00 0.00 0.00 90 1014.3
20260905170100 27 188 0.0 3.2 0.00 0.00 0.00 90 1014.6
20260905165600 26 165 3.2 16.1 0.00 0.00 0.00 90 1014.4
20260905165054 27 174 0.0 3.2 0.00 0.00 0.00 88 1014.3
20260905164550 27 66 3.2 8.0 0.00 0.00 0.00 88 1014.1
20260905164044 27 139 3.2 6.4 0.00 0.00 0.00 86 1014.1
20260905163540 27 185 3.2 3.2 0.00 0.00 0.00 87 1014.1
20260905163036 27 8 0.0 4.8 0.00 0.00 0.00 88 1014.2
20260905162532 27 115 3.2 3.2 0.00 0.00 0.00 89 1014.1
20260905162021 27 349 0.0 6.4 0.00 0.00 0.00 90 1014.6
20260905161521 27 212 0.0 3.2 0.00 0.00 0.00 90 1014.4
20260905161018 26 251 3.2 3.2 0.00 0.00 0.00 92 1014.5
20260905160512 26 121 0.0 4.8 0.00 0.00 0.00 93 1014.7
20260905160012 26 147 6.4 6.4 0.00 0.00 0.00 93 1014.7
20260905155506 26 201 0.0 4.8 0.00 0.00 0.00 93 1015.0
20260905155004 26 140 0.0 8.0 0.00 0.00 0.00 93 1014.7
20260905154500 26 192 3.2 9.7 0.00 0.00 0.00 92 1014.5
20260905153955 26 165 0.0 3.2 0.00 0.00 0.00 91 1014.7
20260905153452 26 106 0.0 6.4 0.00 0.00 0.00 91 1014.3
20260905152951 26 169 3.2 9.7 0.00 0.00 0.00 91 1014.1
20260905152451 27 195 3.2 3.2 0.00 0.00 0.00 90 1014.0
20260905151946 27 194 0.0 3.2 0.00 0.00 0.00 90 1014.1
20260905151441 27 168 1.6 4.8 0.00 0.00 0.00 88 1014.0
20260905150936 27 49 0.0 4.8 0.00 0.00 0.00 89 1014.0
20260905150437 27 216 0.0 6.4 0.00 0.00 0.00 89 1013.8
20260905145932 27 204 3.2 6.4 0.00 0.00 0.00 87 1013.9
20260905145427 27 169 3.2 4.8 0.00 0.00 0.00 88 1013.7
20260905144927 27 220 0.0 3.2 0.00 0.00 0.00 89 1013.5
20260905144423 27 297 0.0 4.8 0.00 0.00 0.00 89 1013.8
20260905143921 27 180 0.0 6.4 0.00 0.00 0.00 90 1013.7
20260905143421 27 168 0.0 4.8 0.00 0.00 0.00 90 1013.6
20260905142915 27 165 3.2 3.2 0.00 0.00 0.00 89 1013.5
20260905142414 27 106 8.0 8.0 0.00 0.00 0.00 90 1013.6
20260905141910 26 188 0.0 3.2 0.00 0.00 0.00 90 1013.5